Tunis-Carthage, Tunisia

2:58 AM CET on October 21, 2018 (GMT +0100)
Tunis

Weather History for DTTA - August, 2018

Change the Weather History Date:

Saturday, August 11, 2018

  Actual Average Record
Temperature  
Mean Temperature 82 °F -  
Max Temperature 91 °F 89 °F - ()
Min Temperature 74 °F 68 °F - ()
Cooling Degree Days 18    
Growing Degree Days 32 (Base 50)    
Moisture  
Dew Point 72 °F    
Average Humidity 72    
Maximum Humidity 94    
Minimum Humidity 46    
Precipitation  
Precipitation 0.00 in 0.02 in - ()
Sea Level Pressure  
Sea Level Pressure 30.09 in    
Wind  
Wind Speed 3 mph ()    
Max Wind Speed 10 mph    
Max Gust Speed -    
Visibility 5.3 miles    
Events      
T = Trace of Precipitation, MM = Missing Value Source: Averaged Metar Reports

Daily Weather History Graph

Daily Weather History Graph

Search for Another Location

Airport or City:

Astronomy

Aug. 11, 2018 Rise Set
Actual Time 5:32 AM CET 7:15 PM CET
Civil Twilight 5:04 AM CET 7:43 PM CET
Nautical Twilight 4:31 AM CET 8:16 PM CET
Astronomical Twilight 3:55 AM CET 8:52 PM CET
Moon 5:19 AM CET (8/11) 7:31 PM CET (8/11)
Length of Visible Light 14h 38m
Length of Day
13h 42m
New Moon, 0% of the Moon is Illuminated
Aug 11
New Moon
Aug 18
First Quarter
Aug 26
Full
Sep 3
Last Quarter
Sep 9
New

Hourly Weather History & Observations

Time (CET) Temp. Heat Index Dew Point Humidity Pressure Visibility Wind Dir Wind Speed Gust Speed Precip Events Conditions
12:30 AM 75.2 °F - 73.4 °F 94% 30.12 in 6.2 mi Calm Calm - N/A   Partly Cloudy
1:00 AM 76 °F - 73 °F 89% 30.13 in 6 mi North 3.5 mph - -   Scattered Clouds
1:00 AM 77.0 °F - 73.4 °F 89% 30.12 in 6.2 mi North 3.5 mph - N/A   Partly Cloudy
1:30 AM 77.0 °F - 73.4 °F 89% 30.12 in 6.2 mi Calm Calm - N/A   Partly Cloudy
2:00 AM 77.0 °F - 73.4 °F 89% 30.09 in 6.2 mi Calm Calm - N/A   Partly Cloudy
2:30 AM 77.0 °F - 73.4 °F 89% 30.09 in 6.2 mi Calm Calm - N/A   Partly Cloudy
3:00 AM 75.2 °F - 73.4 °F 94% 30.09 in 6.2 mi Calm Calm - N/A   Partly Cloudy
3:30 AM 75.2 °F - 73.4 °F 94% 30.09 in 6.2 mi North 3.5 mph - N/A   Partly Cloudy
4:00 AM 75 °F - 72 °F 89% 30.11 in 6 mi NNW 4.6 mph - -   Scattered Clouds
4:00 AM 75.2 °F - 73.4 °F 94% 30.09 in 6.2 mi NNW 4.6 mph - N/A   Partly Cloudy
4:30 AM 75.2 °F - 71.6 °F 89% 30.09 in 6.2 mi NNW 3.5 mph - N/A   Partly Cloudy
5:00 AM 75.2 °F - 71.6 °F 89% 30.09 in 6.2 mi North 4.6 mph - N/A   Partly Cloudy
6:00 AM 75.2 °F - 73.4 °F 94% 30.09 in 6.2 mi Calm Calm - N/A   Partly Cloudy
6:30 AM 75.2 °F - 73.4 °F 94% 30.09 in 5.0 mi Calm Calm - N/A   Partly Cloudy
7:00 AM 78 °F - 75 °F 86% 30.12 in 5 mi Calm Calm - -   Scattered Clouds
7:30 AM 78.8 °F - 75.2 °F 89% 30.12 in 5.0 mi NW 4.6 mph - N/A   Partly Cloudy
8:00 AM 80.6 °F 86.2 °F 75.2 °F 84% 30.12 in 5.0 mi NW 3.5 mph - N/A   Partly Cloudy
8:30 AM 82.4 °F 88.2 °F 73.4 °F 74% 30.12 in 5.0 mi North 3.5 mph - N/A   Partly Cloudy
9:00 AM 82.4 °F 88.2 °F 73.4 °F 74% 30.12 in 5.0 mi North 3.5 mph - N/A   Partly Cloudy
9:30 AM 84.2 °F 89.6 °F 71.6 °F 66% 30.12 in 5.0 mi Variable 3.5 mph - N/A   Partly Cloudy
10:00 AM 86 °F - 71 °F 52% 30.13 in 5 mi NW 3.5 mph - -   Scattered Clouds
10:00 AM 86.0 °F 91.8 °F 71.6 °F 62% 30.12 in 5.0 mi NNW 3.5 mph - N/A   Partly Cloudy
10:30 AM 86.0 °F 90.4 °F 69.8 °F 58% 30.12 in 5.0 mi North 4.6 mph - N/A   Partly Cloudy
11:00 AM 87.8 °F 90.4 °F 66.2 °F 49% 30.12 in 5.0 mi NNE 6.9 mph - N/A   Partly Cloudy
11:30 AM 89.6 °F 93.4 °F 68.0 °F 49% 30.12 in 5.0 mi NNE 5.8 mph - N/A   Partly Cloudy
12:00 PM 89.6 °F 94.7 °F 69.8 °F 52% 30.12 in 5.0 mi NNE 6.9 mph - N/A   Partly Cloudy
12:30 PM 89.6 °F 94.7 °F 69.8 °F 52% 30.09 in 5.0 mi NNE 9.2 mph - N/A   Partly Cloudy
1:00 PM 89.6 °F 92.2 °F 66.2 °F 46% 30.09 in 5.0 mi NNE 8.1 mph - N/A   Partly Cloudy
2:00 PM 91.4 °F 95.4 °F 68.0 °F 46% 30.09 in 5.0 mi North 8.1 mph - N/A   Partly Cloudy
2:30 PM 91.4 °F 95.4 °F 68.0 °F 46% 30.09 in 5.0 mi NNE 9.2 mph - N/A   Partly Cloudy
3:00 PM 87.8 °F 93.8 °F 71.6 °F 58% 30.06 in 5.0 mi North 10.4 mph - N/A   Partly Cloudy
3:30 PM 89.6 °F 96.2 °F 71.6 °F 55% 30.06 in 5.0 mi North 10.4 mph - N/A   Partly Cloudy
4:00 PM 88 °F - 71 °F 47% 30.08 in 5 mi NNE 8.1 mph - -   Scattered Clouds
4:00 PM 87.8 °F 93.8 °F 71.6 °F 58% 30.06 in 5.0 mi NNE 8.1 mph - N/A   Partly Cloudy
4:30 PM 87.8 °F 92.6 °F 69.8 °F 55% 30.06 in 5.0 mi NNE 8.1 mph - N/A   Partly Cloudy
5:30 PM 86.0 °F 90.4 °F 69.8 °F 58% 30.04 in 5.0 mi North 8.1 mph - N/A   Partly Cloudy
6:00 PM 86.0 °F 90.4 °F 69.8 °F 58% 30.04 in 5.0 mi NNE 8.1 mph - N/A   Partly Cloudy
6:30 PM 84.2 °F 89.6 °F 71.6 °F 66% 30.06 in 5.0 mi North 6.9 mph - N/A   Partly Cloudy
7:00 PM 82 °F - 72 °F 66% 30.07 in 5 mi North 4.6 mph - -   Scattered Clouds
7:00 PM 82.4 °F 87.2 °F 71.6 °F 70% 30.06 in 5.0 mi North 4.6 mph - N/A   Partly Cloudy
8:00 PM 80.6 °F 84.6 °F 71.6 °F 74% 30.06 in 5.0 mi North 3.5 mph - N/A   Smoke
9:00 PM 80.6 °F 85.4 °F 73.4 °F 79% 30.06 in 5.0 mi NNE 4.6 mph - N/A   Partly Cloudy
9:30 PM 78.8 °F - 73.4 °F 83% 30.06 in 5.0 mi NE 3.5 mph - N/A   Partly Cloudy
10:00 PM 78 °F - 73 °F 80% 30.08 in 5 mi NNW 2.3 mph - -   Scattered Clouds
11:00 PM 78.8 °F - 73.4 °F 83% 30.06 in 5.0 mi Calm Calm - N/A   Partly Cloudy
11:30 PM 78.8 °F - 73.4 °F 83% 30.06 in 5.0 mi Calm Calm - N/A   Partly Cloudy